Location: ???????
(55.4362°N, 38.1183°E)
Time: 18:28:30
(UTC+00:00)

ADEOS Rocket - Pass Details

Date: 17 June 2021
Orbit: 858 x 1307 km, 98.7° (Epoch: 29 July)

Event Time Altitude Azimuth Distance (km) Brightness Sun altitude
Rises 22:53:06 0° 149° (SSE) 4,167 5.9 -9.1°
Reaches altitude 10° 22:55:52 10° 147° (SSE) 3,155 5.3 -9.0°
Maximum altitude 23:03:00 67° 67° (ENE) 1,216 3.7 -8.6°
Drops below altitude 10° 23:09:28 10° 347° (NNW) 2,863 6.4 -8.3°
Sets 23:11:52 0° 345° (NNW) 3,760 7.0 -8.1°
